User: anonymous   Login
Location: Caltech
(34.1382°N, 118.1253°W)
Time: 08:42:19
(UTC-07:00)
Language:

Aureole 3 Rocket - Orbit

View from above orbital plane
View from above orbital plane
View from above satellite
View from above satellite

Ground track
Ground track

The orbit data is extracted from the following two-line orbital elements,

1 12849U 81094B   16268.79724900  .00000374  00000-0  30895-4 0  9990
2 12849  82.4966  10.3731 0904927  48.5598 318.9765 13.49948722706120
Epoch (UTC): 24 September 2016 19:08:02
Eccentricity: 0.0904927
inclination: 82.4966°
perigee height: 398 km
apogee height: 1746 km
right ascension of ascending node: 10.3731°
argument of perigee: 48.5598°
revolutions per day: 13.49948722
mean anomaly at epoch: 318.9765°
orbit number at epoch: 70612

The dashed part of the orbit path shows where the satellite is in the earth's shadow,  

DLR